owner,sensor,date,latitude,longitude,vertical_datum,sea_water_practical_salinity,qcFlag 
SCCF RECON,ioos:station:SCCF:11:1,2017-06-01T00:00:00Z,26.4679,-82.0631,2.06,35.93,1111122 
SCCF RECON,ioos:station:SCCF:11:1,2017-06-01T01:00:00Z,26.4679,-82.0631,2.028,35.95,1111122 
SCCF RECON,ioos:station:SCCF:11:1,2017-06-01T02:00:00Z,26.4679,-82.0631,1.98,35.97,1111122 
SCCF RECON,ioos:station:SCCF:11:1,2017-06-01T03:00:00Z,26.4679,-82.0631,1.9,36.02,1111122 
SCCF RECON,ioos:station:SCCF:11:1,2017-06-01T04:00:00Z,26.4679,-82.0631,1.82,36.12,1111122 
SCCF RECON,ioos:station:SCCF:11:1,2017-06-01T05:00:00Z,26.4679,-82.0631,1.72,36.14,1111122 
SCCF RECON,ioos:station:SCCF:11:1,2017-06-01T06:00:00Z,26.4679,-82.0631,1.62,36.2,1111122 
SCCF RECON,ioos:station:SCCF:11:1,2017-06-01T07:00:00Z,26.4679,-82.0631,1.56,36.16,1111122 
SCCF RECON,ioos:station:SCCF:11:1,2017-06-01T08:00:00Z,26.4679,-82.0631,1.54,36.05,1111122 
SCCF RECON,ioos:station:SCCF:11:1,2017-06-01T09:00:00Z,26.4679,-82.0631,1.62,36.08,1111122 
SCCF RECON,ioos:station:SCCF:11:1,2017-06-01T10:00:00Z,26.4679,-82.0631,1.71,36.06,1111122 
SCCF RECON,ioos:station:SCCF:11:1,2017-06-01T11:00:00Z,26.4679,-82.0631,1.791,36.02,1111122 
SCCF RECON,ioos:station:SCCF:11:1,2017-06-01T12:00:00Z,26.4679,-82.0631,1.865,35.95,1111122 
SCCF RECON,ioos:station:SCCF:11:1,2017-06-01T13:00:00Z,26.4679,-82.0631,1.92,35.97,1111122 
SCCF RECON,ioos:station:SCCF:11:1,2017-06-01T14:00:00Z,26.4679,-82.0631,1.952,35.96,1111122 
SCCF RECON,ioos:station:SCCF:11:1,2017-06-01T15:00:00Z,26.4679,-82.0631,1.95,35.97,1111122 
SCCF RECON,ioos:station:SCCF:11:1,2017-06-01T16:00:00Z,26.4679,-82.0631,1.93,35.99,1111122 
SCCF RECON,ioos:station:SCCF:11:1,2017-06-01T17:00:00Z,26.4679,-82.0631,1.0,36.19,1111122 
SCCF RECON,ioos:station:SCCF:11:1,2017-06-01T18:00:00Z,26.4679,-82.0631,1.0,36.27,1111122 
SCCF RECON,ioos:station:SCCF:11:1,2017-06-01T19:00:00Z,26.4679,-82.0631,1.64,36.29,1111122 
SCCF RECON,ioos:station:SCCF:11:1,2017-06-01T20:00:00Z,26.4679,-82.0631,1.683,36.27,1111122 
SCCF RECON,ioos:station:SCCF:11:1,2017-06-01T21:00:00Z,26.4679,-82.0631,1.73,36.21,1111122 
SCCF RECON,ioos:station:SCCF:11:1,2017-06-01T22:00:00Z,26.4679,-82.0631,1.81,36.23,1111122 
SCCF RECON,ioos:station:SCCF:11:1,2017-06-01T23:00:00Z,26.4679,-82.0631,1.84,36.23,1111122 
SCCF RECON,ioos:station:SCCF:11:1,2017-06-02T00:00:00Z,26.4679,-82.0631,1.88,36.22,1111122 
SCCF RECON,ioos:station:SCCF:11:1,2017-06-02T01:00:00Z,26.4679,-82.0631,1.92,36.22,1111122 
SCCF RECON,ioos:station:SCCF:11:1,2017-06-02T02:00:00Z,26.4679,-82.0631,1.94,36.2,1111122 
SCCF RECON,ioos:station:SCCF:11:1,2017-06-02T03:00:00Z,26.4679,-82.0631,1.963,36.28,1111122 
SCCF RECON,ioos:station:SCCF:11:1,2017-06-02T04:00:00Z,26.4679,-82.0631,1.901,36.3,1111122 
SCCF RECON,ioos:station:SCCF:11:1,2017-06-02T05:00:00Z,26.4679,-82.0631,1.82,36.36,1111122 
SCCF RECON,ioos:station:SCCF:11:1,2017-06-02T06:00:00Z,26.4679,-82.0631,1.727,36.45,1111122 
SCCF RECON,ioos:station:SCCF:11:1,2017-06-02T07:00:00Z,26.4679,-82.0631,1.64,36.42,1111122 
SCCF RECON,ioos:station:SCCF:11:1,2017-06-02T08:00:00Z,26.4679,-82.0631,1.589,36.35,1111122 
SCCF RECON,ioos:station:SCCF:11:1,2017-06-02T09:00:00Z,26.4679,-82.0631,1.61,36.35,1111122 
SCCF RECON,ioos:station:SCCF:11:1,2017-06-02T10:00:00Z,26.4679,-82.0631,1.68,36.33,1111122 
SCCF RECON,ioos:station:SCCF:11:1,2017-06-02T11:00:00Z,26.4679,-82.0631,1.77,36.33,1111122 
SCCF RECON,ioos:station:SCCF:11:1,2017-06-02T12:00:00Z,26.4679,-82.0631,1.85,36.33,1111122 
SCCF RECON,ioos:station:SCCF:11:1,2017-06-02T13:00:00Z,26.4679,-82.0631,1.92,36.28,1111122 
SCCF RECON,ioos:station:SCCF:11:1,2017-06-02T14:00:00Z,26.4679,-82.0631,1.98,36.29,1111122 
SCCF RECON,ioos:station:SCCF:11:1,2017-06-02T15:00:00Z,26.4679,-82.0631,2.01,36.29,1111122 
SCCF RECON,ioos:station:SCCF:11:1,2017-06-02T16:00:00Z,26.4679,-82.0631,2.01,36.25,1111122 
SCCF RECON,ioos:station:SCCF:11:1,2017-06-02T17:00:00Z,26.4679,-82.0631,1.967,36.27,1111122 
SCCF RECON,ioos:station:SCCF:11:1,2017-06-02T18:00:00Z,26.4679,-82.0631,1.91,36.39,1111122 
SCCF RECON,ioos:station:SCCF:11:1,2017-06-02T19:00:00Z,26.4679,-82.0631,1.831,36.39,1111122 
SCCF RECON,ioos:station:SCCF:11:1,2017-06-02T20:00:00Z,26.4679,-82.0631,1.78,36.37,1111122 
SCCF RECON,ioos:station:SCCF:11:1,2017-06-02T21:00:00Z,26.4679,-82.0631,1.76,36.33,1111122 
SCCF RECON,ioos:station:SCCF:11:1,2017-06-02T22:00:00Z,26.4679,-82.0631,1.77,36.3,1111122 
SCCF RECON,ioos:station:SCCF:11:1,2017-06-02T23:00:00Z,26.4679,-82.0631,1.805,36.28,1111122 
SCCF RECON,ioos:station:SCCF:11:1,2017-06-03T00:00:00Z,26.4679,-82.0631,1.853,36.29,1111122 
SCCF RECON,ioos:station:SCCF:11:1,2017-06-03T01:00:00Z,26.4679,-82.0631,1.89,36.3,1111122 
SCCF RECON,ioos:station:SCCF:11:1,2017-06-03T02:00:00Z,26.4679,-82.0631,1.91,36.3,1111122 
SCCF RECON,ioos:station:SCCF:11:1,2017-06-03T03:00:00Z,26.4679,-82.0631,1.92,36.3,1111122 
SCCF RECON,ioos:station:SCCF:11:1,2017-06-03T04:00:00Z,26.4679,-82.0631,1.89,36.31,1111122 
SCCF RECON,ioos:station:SCCF:11:1,2017-06-03T05:00:00Z,26.4679,-82.0631,1.843,36.41,1111122 
SCCF RECON,ioos:station:SCCF:11:1,2017-06-03T06:00:00Z,26.4679,-82.0631,1.782,36.43,1111122 
SCCF RECON,ioos:station:SCCF:11:1,2017-06-03T07:00:00Z,26.4679,-82.0631,1.72,36.48,1111122 
SCCF RECON,ioos:station:SCCF:11:1,2017-06-03T08:00:00Z,26.4679,-82.0631,1.667,36.5,1111122 
SCCF RECON,ioos:station:SCCF:11:1,2017-06-03T09:00:00Z,26.4679,-82.0631,1.63,36.39,1111122 
SCCF RECON,ioos:station:SCCF:11:1,2017-06-03T10:00:00Z,26.4679,-82.0631,1.651,36.34,1111122 
SCCF RECON,ioos:station:SCCF:11:1,2017-06-03T11:00:00Z,26.4679,-82.0631,1.74,36.34,1111122 
SCCF RECON,ioos:station:SCCF:11:1,2017-06-03T12:00:00Z,26.4679,-82.0631,1.83,36.34,1111122 
SCCF RECON,ioos:station:SCCF:11:1,2017-06-03T13:00:00Z,26.4679,-82.0631,1.922,36.34,1111122 
SCCF RECON,ioos:station:SCCF:11:1,2017-06-03T14:00:00Z,26.4679,-82.0631,2.0,36.34,1111122 
SCCF RECON,ioos:station:SCCF:11:1,2017-06-03T15:00:00Z,26.4679,-82.0631,2.06,36.32,1111122 
SCCF RECON,ioos:station:SCCF:11:1,2017-06-03T16:00:00Z,26.4679,-82.0631,2.06,36.32,1111122 
SCCF RECON,ioos:station:SCCF:11:1,2017-06-03T17:00:00Z,26.4679,-82.0631,2.026,36.35,1111122 
SCCF RECON,ioos:station:SCCF:11:1,2017-06-03T18:00:00Z,26.4679,-82.0631,1.97,36.45,1111122 
SCCF RECON,ioos:station:SCCF:11:1,2017-06-03T19:00:00Z,26.4679,-82.0631,1.895,36.48,1111122 
SCCF RECON,ioos:station:SCCF:11:1,2017-06-03T20:00:00Z,26.4679,-82.0631,1.81,36.48,1111122 
SCCF RECON,ioos:station:SCCF:11:1,2017-06-03T21:00:00Z,26.4679,-82.0631,1.74,36.38,1111122 
SCCF RECON,ioos:station:SCCF:11:1,2017-06-03T22:00:00Z,26.4679,-82.0631,1.71,36.43,1111122 
SCCF RECON,ioos:station:SCCF:11:1,2017-06-03T23:00:00Z,26.4679,-82.0631,1.71,36.45,1111122 
SCCF RECON,ioos:station:SCCF:11:1,2017-06-04T00:00:00Z,26.4679,-82.0631,1.75,36.46,1111122 
SCCF RECON,ioos:station:SCCF:11:1,2017-06-04T01:00:00Z,26.4679,-82.0631,1.78,36.46,1111122 
SCCF RECON,ioos:station:SCCF:11:1,2017-06-04T02:00:00Z,26.4679,-82.0631,1.81,36.45,1111122 
SCCF RECON,ioos:station:SCCF:11:1,2017-06-04T03:00:00Z,26.4679,-82.0631,1.85,36.41,1111122 
SCCF RECON,ioos:station:SCCF:11:1,2017-06-04T04:00:00Z,26.4679,-82.0631,1.88,36.42,1111122 
SCCF RECON,ioos:station:SCCF:11:1,2017-06-04T05:00:00Z,26.4679,-82.0631,1.89,36.45,1111122 
SCCF RECON,ioos:station:SCCF:11:1,2017-06-04T06:00:00Z,26.4679,-82.0631,1.866,36.44,1111122 
SCCF RECON,ioos:station:SCCF:11:1,2017-06-04T07:00:00Z,26.4679,-82.0631,1.83,36.45,1111122 
SCCF RECON,ioos:station:SCCF:11:1,2017-06-04T08:00:00Z,26.4679,-82.0631,1.781,36.47,1111122 
SCCF RECON,ioos:station:SCCF:11:1,2017-06-04T09:00:00Z,26.4679,-82.0631,1.74,36.48,1111122 
SCCF RECON,ioos:station:SCCF:11:1,2017-06-04T10:00:00Z,26.4679,-82.0631,1.72,36.47,1111122 
SCCF RECON,ioos:station:SCCF:11:1,2017-06-04T11:00:00Z,26.4679,-82.0631,1.75,36.45,1111122 
SCCF RECON,ioos:station:SCCF:11:1,2017-06-04T12:00:00Z,26.4679,-82.0631,1.811,36.28,1111122 
SCCF RECON,ioos:station:SCCF:11:1,2017-06-04T13:00:00Z,26.4679,-82.0631,1.89,36.31,1111122 
SCCF RECON,ioos:station:SCCF:11:1,2017-06-04T14:00:00Z,26.4679,-82.0631,1.97,36.23,1111122 
SCCF RECON,ioos:station:SCCF:11:1,2017-06-04T15:00:00Z,26.4679,-82.0631,2.04,36.23,1111122 
SCCF RECON,ioos:station:SCCF:11:1,2017-06-04T16:00:00Z,26.4679,-82.0631,2.07,36.26,1111122 
SCCF RECON,ioos:station:SCCF:11:1,2017-06-04T17:00:00Z,26.4679,-82.0631,2.058,36.28,1111122 
SCCF RECON,ioos:station:SCCF:11:1,2017-06-04T18:00:00Z,26.4679,-82.0631,2.01,36.44,1111122 
SCCF RECON,ioos:station:SCCF:11:1,2017-06-04T19:00:00Z,26.4679,-82.0631,1.94,36.49,1111122 
SCCF RECON,ioos:station:SCCF:11:1,2017-06-04T20:00:00Z,26.4679,-82.0631,1.86,36.59,1111122 
SCCF RECON,ioos:station:SCCF:11:1,2017-06-04T21:00:00Z,26.4679,-82.0631,1.76,36.66,1111122 
SCCF RECON,ioos:station:SCCF:11:1,2017-06-04T22:00:00Z,26.4679,-82.0631,1.684,36.45,1111122 
SCCF RECON,ioos:station:SCCF:11:1,2017-06-04T23:00:00Z,26.4679,-82.0631,1.65,36.48,1111122 
SCCF RECON,ioos:station:SCCF:11:1,2017-06-05T00:00:00Z,26.4679,-82.0631,1.66,36.44,1111122 
SCCF RECON,ioos:station:SCCF:11:1,2017-06-05T01:00:00Z,26.4679,-82.0631,1.71,36.34,1111122 
SCCF RECON,ioos:station:SCCF:11:1,2017-06-05T02:00:00Z,26.4679,-82.0631,1.78,36.38,1111122 
SCCF RECON,ioos:station:SCCF:11:1,2017-06-05T03:00:00Z,26.4679,-82.0631,1.85,36.38,1111122 
SCCF RECON,ioos:station:SCCF:11:1,2017-06-05T04:00:00Z,26.4679,-82.0631,1.9,36.31,1111122 
SCCF RECON,ioos:station:SCCF:11:1,2017-06-05T05:00:00Z,26.4679,-82.0631,1.93,36.35,1111122 
SCCF RECON,ioos:station:SCCF:11:1,2017-06-05T06:00:00Z,26.4679,-82.0631,1.95,36.39,1111122 
SCCF RECON,ioos:station:SCCF:11:1,2017-06-05T07:00:00Z,26.4679,-82.0631,1.93,36.32,1111122 
SCCF RECON,ioos:station:SCCF:11:1,2017-06-05T08:00:00Z,26.4679,-82.0631,1.89,36.38,1111122 
SCCF RECON,ioos:station:SCCF:11:1,2017-06-05T09:00:00Z,26.4679,-82.0631,1.84,36.42,1111122 
SCCF RECON,ioos:station:SCCF:11:1,2017-06-05T10:00:00Z,26.4679,-82.0631,1.81,36.43,1111122 
SCCF RECON,ioos:station:SCCF:11:1,2017-06-05T11:00:00Z,26.4679,-82.0631,1.81,36.35,1111122 
SCCF RECON,ioos:station:SCCF:11:1,2017-06-05T12:00:00Z,26.4679,-82.0631,1.858,36.35,1111122 
SCCF RECON,ioos:station:SCCF:11:1,2017-06-05T13:00:00Z,26.4679,-82.0631,1.93,36.27,1111122 
SCCF RECON,ioos:station:SCCF:11:1,2017-06-05T14:00:00Z,26.4679,-82.0631,2.01,36.27,1111122 
SCCF RECON,ioos:station:SCCF:11:1,2017-06-05T15:00:00Z,26.4679,-82.0631,2.079,36.28,1111122 
SCCF RECON,ioos:station:SCCF:11:1,2017-06-05T16:00:00Z,26.4679,-82.0631,2.13,36.29,1111122 
SCCF RECON,ioos:station:SCCF:11:1,2017-06-05T17:00:00Z,26.4679,-82.0631,2.15,36.23,1111122 
SCCF RECON,ioos:station:SCCF:11:1,2017-06-05T18:00:00Z,26.4679,-82.0631,2.091,36.2,1111122 
SCCF RECON,ioos:station:SCCF:11:1,2017-06-05T19:00:00Z,26.4679,-82.0631,2.014,36.25,1111122 
SCCF RECON,ioos:station:SCCF:11:1,2017-06-05T20:00:00Z,26.4679,-82.0631,1.92,36.2,1111122 
SCCF RECON,ioos:station:SCCF:11:1,2017-06-05T21:00:00Z,26.4679,-82.0631,1.82,36.16,1111122 
SCCF RECON,ioos:station:SCCF:11:1,2017-06-05T22:00:00Z,26.4679,-82.0631,1.71,36.17,1111122 
SCCF RECON,ioos:station:SCCF:11:1,2017-06-05T23:00:00Z,26.4679,-82.0631,1.62,36.21,1111122 
SCCF RECON,ioos:station:SCCF:11:1,2017-06-06T00:00:00Z,26.4679,-82.0631,1.59,36.15,1111122 
SCCF RECON,ioos:station:SCCF:11:1,2017-06-06T01:00:00Z,26.4679,-82.0631,1.62,36.09,1111122 
SCCF RECON,ioos:station:SCCF:11:1,2017-06-06T02:00:00Z,26.4679,-82.0631,1.689,36.03,1111122 
SCCF RECON,ioos:station:SCCF:11:1,2017-06-06T03:00:00Z,26.4679,-82.0631,1.75,36.02,1111122 
SCCF RECON,ioos:station:SCCF:11:1,2017-06-06T04:00:00Z,26.4679,-82.0631,1.81,36.01,1111122 
SCCF RECON,ioos:station:SCCF:11:1,2017-06-06T05:00:00Z,26.4679,-82.0631,1.87,35.98,1111122 
SCCF RECON,ioos:station:SCCF:11:1,2017-06-06T06:00:00Z,26.4679,-82.0631,1.91,36.0,1111122 
SCCF RECON,ioos:station:SCCF:11:1,2017-06-06T07:00:00Z,26.4679,-82.0631,1.92,35.95,1111122 
SCCF RECON,ioos:station:SCCF:11:1,2017-06-06T08:00:00Z,26.4679,-82.0631,1.91,35.92,1111122 
SCCF RECON,ioos:station:SCCF:11:1,2017-06-06T09:00:00Z,26.4679,-82.0631,1.87,35.88,1111122 
SCCF RECON,ioos:station:SCCF:11:1,2017-06-06T10:00:00Z,26.4679,-82.0631,1.83,35.87,1111122 
SCCF RECON,ioos:station:SCCF:11:1,2017-06-06T11:00:00Z,26.4679,-82.0631,1.83,35.87,1111122 
SCCF RECON,ioos:station:SCCF:11:1,2017-06-06T12:00:00Z,26.4679,-82.0631,1.863,35.9,1111122 
SCCF RECON,ioos:station:SCCF:11:1,2017-06-06T13:00:00Z,26.4679,-82.0631,1.934,35.89,1111122 
SCCF RECON,ioos:station:SCCF:11:1,2017-06-06T14:00:00Z,26.4679,-82.0631,2.02,35.88,1111122 
SCCF RECON,ioos:station:SCCF:11:1,2017-06-06T15:00:00Z,26.4679,-82.0631,2.105,35.93,1111122 
SCCF RECON,ioos:station:SCCF:11:1,2017-06-06T16:00:00Z,26.4679,-82.0631,2.167,35.94,1111122 
SCCF RECON,ioos:station:SCCF:11:1,2017-06-06T17:00:00Z,26.4679,-82.0631,2.19,35.86,1111122 
SCCF RECON,ioos:station:SCCF:11:1,2017-06-06T18:00:00Z,26.4679,-82.0631,2.19,35.88,1111122 
SCCF RECON,ioos:station:SCCF:11:1,2017-06-06T19:00:00Z,26.4679,-82.0631,2.16,35.8,1111122 
SCCF RECON,ioos:station:SCCF:11:1,2017-06-06T20:00:00Z,26.4679,-82.0631,2.1,35.71,1111122 
SCCF RECON,ioos:station:SCCF:11:1,2017-06-06T21:00:00Z,26.4679,-82.0631,2.01,35.69,1111122 
SCCF RECON,ioos:station:SCCF:11:1,2017-06-06T22:00:00Z,26.4679,-82.0631,1.91,35.66,1111122 
SCCF RECON,ioos:station:SCCF:11:1,2017-06-06T23:00:00Z,26.4679,-82.0631,1.825,35.38,1111122 
SCCF RECON,ioos:station:SCCF:11:1,2017-06-07T00:00:00Z,26.4679,-82.0631,1.75,35.14,1111122 
SCCF RECON,ioos:station:SCCF:11:1,2017-06-07T01:00:00Z,26.4679,-82.0631,1.72,35.38,1111122 
SCCF RECON,ioos:station:SCCF:11:1,2017-06-07T02:00:00Z,26.4679,-82.0631,1.75,35.65,1111122 
SCCF RECON,ioos:station:SCCF:11:1,2017-06-07T03:00:00Z,26.4679,-82.0631,1.79,35.67,1111122 
SCCF RECON,ioos:station:SCCF:11:1,2017-06-07T04:00:00Z,26.4679,-82.0631,1.84,35.64,1111122 
SCCF RECON,ioos:station:SCCF:11:1,2017-06-07T05:00:00Z,26.4679,-82.0631,1.92,35.58,1111122 
SCCF RECON,ioos:station:SCCF:11:1,2017-06-07T06:00:00Z,26.4679,-82.0631,1.979,35.59,1111122 
SCCF RECON,ioos:station:SCCF:11:1,2017-06-07T07:00:00Z,26.4679,-82.0631,2.01,35.57,1111122 
SCCF RECON,ioos:station:SCCF:11:1,2017-06-07T08:00:00Z,26.4679,-82.0631,2.02,35.59,1111122 
SCCF RECON,ioos:station:SCCF:11:1,2017-06-07T09:00:00Z,26.4679,-82.0631,2.018,35.6,1111122 
SCCF RECON,ioos:station:SCCF:11:1,2017-06-07T10:00:00Z,26.4679,-82.0631,1.95,35.44,1111122 
SCCF RECON,ioos:station:SCCF:11:1,2017-06-07T11:00:00Z,26.4679,-82.0631,1.91,35.53,1111122 
SCCF RECON,ioos:station:SCCF:11:1,2017-06-07T12:00:00Z,26.4679,-82.0631,1.918,35.46,1111122 
SCCF RECON,ioos:station:SCCF:11:1,2017-06-07T13:00:00Z,26.4679,-82.0631,1.959,35.44,1111122 
SCCF RECON,ioos:station:SCCF:11:1,2017-06-07T14:00:00Z,26.4679,-82.0631,2.02,35.44,1111122 
SCCF RECON,ioos:station:SCCF:11:1,2017-06-07T15:00:00Z,26.4679,-82.0631,2.112,35.49,1111122 
SCCF RECON,ioos:station:SCCF:11:1,2017-06-07T16:00:00Z,26.4679,-82.0631,2.196,35.56,1111122 
SCCF RECON,ioos:station:SCCF:11:1,2017-06-07T17:00:00Z,26.4679,-82.0631,2.24,35.53,1111122 
SCCF RECON,ioos:station:SCCF:11:1,2017-06-07T18:00:00Z,26.4679,-82.0631,2.26,34.17,1111122 
SCCF RECON,ioos:station:SCCF:11:1,2017-06-07T19:00:00Z,26.4679,-82.0631,2.22,33.68,1111122 
SCCF RECON,ioos:station:SCCF:11:1,2017-06-07T20:00:00Z,26.4679,-82.0631,2.17,33.74,1111122 
SCCF RECON,ioos:station:SCCF:11:1,2017-06-07T21:00:00Z,26.4679,-82.0631,2.09,33.33,1111122 
SCCF RECON,ioos:station:SCCF:11:1,2017-06-07T22:00:00Z,26.4679,-82.0631,1.97,32.93,1111122 
SCCF RECON,ioos:station:SCCF:11:1,2017-06-07T23:00:00Z,26.4679,-82.0631,1.847,31.35,1111122 
SCCF RECON,ioos:station:SCCF:11:1,2017-06-08T00:00:00Z,26.4679,-82.0631,1.75,31.08,1111122 
SCCF RECON,ioos:station:SCCF:11:1,2017-06-08T01:00:00Z,26.4679,-82.0631,1.711,32.83,1111122 
SCCF RECON,ioos:station:SCCF:11:1,2017-06-08T02:00:00Z,26.4679,-82.0631,1.75,33.94,1111122 
SCCF RECON,ioos:station:SCCF:11:1,2017-06-08T03:00:00Z,26.4679,-82.0631,1.78,34.28,1111122 
SCCF RECON,ioos:station:SCCF:11:1,2017-06-08T04:00:00Z,26.4679,-82.0631,1.85,34.11,1111122 
SCCF RECON,ioos:station:SCCF:11:1,2017-06-08T05:00:00Z,26.4679,-82.0631,1.92,34.18,1111122 
SCCF RECON,ioos:station:SCCF:11:1,2017-06-08T06:00:00Z,26.4679,-82.0631,1.98,34.2,1111122 
SCCF RECON,ioos:station:SCCF:11:1,2017-06-08T07:00:00Z,26.4679,-82.0631,2.01,33.88,1111122 
SCCF RECON,ioos:station:SCCF:11:1,2017-06-08T08:00:00Z,26.4679,-82.0631,2.01,33.87,1111122 
SCCF RECON,ioos:station:SCCF:11:1,2017-06-08T09:00:00Z,26.4679,-82.0631,1.99,33.59,1111122 
SCCF RECON,ioos:station:SCCF:11:1,2017-06-08T10:00:00Z,26.4679,-82.0631,1.96,33.44,1111122 
SCCF RECON,ioos:station:SCCF:11:1,2017-06-08T11:00:00Z,26.4679,-82.0631,1.91,33.1,1111122 
SCCF RECON,ioos:station:SCCF:11:1,2017-06-08T12:00:00Z,26.4679,-82.0631,1.92,34.4,1111122 
SCCF RECON,ioos:station:SCCF:11:1,2017-06-08T13:00:00Z,26.4679,-82.0631,1.974,34.78,1111122 
SCCF RECON,ioos:station:SCCF:11:1,2017-06-08T14:00:00Z,26.4679,-82.0631,2.031,34.75,1111122 
SCCF RECON,ioos:station:SCCF:11:1,2017-06-08T15:00:00Z,26.4679,-82.0631,2.106,34.61,1111122 
SCCF RECON,ioos:station:SCCF:11:1,2017-06-08T16:00:00Z,26.4679,-82.0631,2.17,34.82,1111122 
SCCF RECON,ioos:station:SCCF:11:1,2017-06-08T17:00:00Z,26.4679,-82.0631,2.2,34.52,1111122 
SCCF RECON,ioos:station:SCCF:11:1,2017-06-08T18:00:00Z,26.4679,-82.0631,2.22,34.15,1111122 
SCCF RECON,ioos:station:SCCF:11:1,2017-06-08T19:00:00Z,26.4679,-82.0631,2.19,33.66,1111122 
SCCF RECON,ioos:station:SCCF:11:1,2017-06-08T20:00:00Z,26.4679,-82.0631,2.13,33.4,1111122 
SCCF RECON,ioos:station:SCCF:11:1,2017-06-08T21:00:00Z,26.4679,-82.0631,2.04,33.45,1111122 
SCCF RECON,ioos:station:SCCF:11:1,2017-06-08T22:00:00Z,26.4679,-82.0631,1.92,33.45,1111122 
SCCF RECON,ioos:station:SCCF:11:1,2017-06-08T23:00:00Z,26.4679,-82.0631,1.8,32.22,1111122 
SCCF RECON,ioos:station:SCCF:11:1,2017-06-09T00:00:00Z,26.4679,-82.0631,1.68,32.35,1111122 
SCCF RECON,ioos:station:SCCF:11:1,2017-06-09T01:00:00Z,26.4679,-82.0631,1.59,33.28,1111122 
SCCF RECON,ioos:station:SCCF:11:1,2017-06-09T02:00:00Z,26.4679,-82.0631,1.56,33.46,1111122 
SCCF RECON,ioos:station:SCCF:11:1,2017-06-09T03:00:00Z,26.4679,-82.0631,1.58,34.23,1111122 
SCCF RECON,ioos:station:SCCF:11:1,2017-06-09T04:00:00Z,26.4679,-82.0631,1.63,34.19,1111122 
SCCF RECON,ioos:station:SCCF:11:1,2017-06-09T05:00:00Z,26.4679,-82.0631,1.71,34.09,1111122 
SCCF RECON,ioos:station:SCCF:11:1,2017-06-09T06:00:00Z,26.4679,-82.0631,1.78,33.58,1111122 
SCCF RECON,ioos:station:SCCF:11:1,2017-06-09T07:00:00Z,26.4679,-82.0631,1.84,33.22,1111122 
SCCF RECON,ioos:station:SCCF:11:1,2017-06-09T08:00:00Z,26.4679,-82.0631,1.88,33.2,1111122 
SCCF RECON,ioos:station:SCCF:11:1,2017-06-09T09:00:00Z,26.4679,-82.0631,1.88,33.83,1111122 
SCCF RECON,ioos:station:SCCF:11:1,2017-06-09T10:00:00Z,26.4679,-82.0631,1.86,33.83,1111122 
SCCF RECON,ioos:station:SCCF:11:1,2017-06-09T11:00:00Z,26.4679,-82.0631,1.84,33.73,1111122 
SCCF RECON,ioos:station:SCCF:11:1,2017-06-09T12:00:00Z,26.4679,-82.0631,1.83,33.69,1111122 
SCCF RECON,ioos:station:SCCF:11:1,2017-06-09T13:00:00Z,26.4679,-82.0631,1.82,33.54,1111122 
SCCF RECON,ioos:station:SCCF:11:1,2017-06-09T14:00:00Z,26.4679,-82.0631,1.85,33.45,1111122 
SCCF RECON,ioos:station:SCCF:11:1,2017-06-09T15:00:00Z,26.4679,-82.0631,1.91,32.42,1111122 
SCCF RECON,ioos:station:SCCF:11:1,2017-06-09T16:00:00Z,26.4679,-82.0631,1.99,31.83,1111122 
SCCF RECON,ioos:station:SCCF:11:1,2017-06-09T17:00:00Z,26.4679,-82.0631,2.079,31.45,1111122 
SCCF RECON,ioos:station:SCCF:11:1,2017-06-09T18:00:00Z,26.4679,-82.0631,2.16,31.7,1111122 
SCCF RECON,ioos:station:SCCF:11:1,2017-06-09T19:00:00Z,26.4679,-82.0631,2.12,32.38,1111122 
SCCF RECON,ioos:station:SCCF:11:1,2017-06-09T20:00:00Z,26.4679,-82.0631,2.11,32.83,1111122 
SCCF RECON,ioos:station:SCCF:11:1,2017-06-09T21:00:00Z,26.4679,-82.0631,2.03,33.0,1111122 
SCCF RECON,ioos:station:SCCF:11:1,2017-06-09T22:00:00Z,26.4679,-82.0631,1.92,33.12,1111122 
SCCF RECON,ioos:station:SCCF:11:1,2017-06-09T23:00:00Z,26.4679,-82.0631,1.81,33.22,1111122 
SCCF RECON,ioos:station:SCCF:11:1,2017-06-10T00:00:00Z,26.4679,-82.0631,1.699,32.7,1111122 
SCCF RECON,ioos:station:SCCF:11:1,2017-06-10T01:00:00Z,26.4679,-82.0631,1.59,32.87,1111122 
SCCF RECON,ioos:station:SCCF:11:1,2017-06-10T02:00:00Z,26.4679,-82.0631,1.54,32.86,1111122 
SCCF RECON,ioos:station:SCCF:11:1,2017-06-10T03:00:00Z,26.4679,-82.0631,1.54,33.31,1111122 
SCCF RECON,ioos:station:SCCF:11:1,2017-06-10T04:00:00Z,26.4679,-82.0631,1.58,33.26,1111122 
SCCF RECON,ioos:station:SCCF:11:1,2017-06-10T05:00:00Z,26.4679,-82.0631,1.64,33.16,1111122 
SCCF RECON,ioos:station:SCCF:11:1,2017-06-10T06:00:00Z,26.4679,-82.0631,1.73,32.13,1111122 
SCCF RECON,ioos:station:SCCF:11:1,2017-06-10T07:00:00Z,26.4679,-82.0631,1.81,32.16,1111122 
SCCF RECON,ioos:station:SCCF:11:1,2017-06-10T08:00:00Z,26.4679,-82.0631,1.87,32.48,1111122 
SCCF RECON,ioos:station:SCCF:11:1,2017-06-10T09:00:00Z,26.4679,-82.0631,1.91,32.19,1111122 
SCCF RECON,ioos:station:SCCF:11:1,2017-06-10T10:00:00Z,26.4679,-82.0631,1.93,32.57,1111122 
SCCF RECON,ioos:station:SCCF:11:1,2017-06-10T11:00:00Z,26.4679,-82.0631,1.92,32.57,1111122 
SCCF RECON,ioos:station:SCCF:11:1,2017-06-10T12:00:00Z,26.4679,-82.0631,1.91,32.76,1111122 
SCCF RECON,ioos:station:SCCF:11:1,2017-06-10T13:00:00Z,26.4679,-82.0631,1.9,32.58,1111122 
SCCF RECON,ioos:station:SCCF:11:1,2017-06-10T14:00:00Z,26.4679,-82.0631,1.91,33.26,1111122 
SCCF RECON,ioos:station:SCCF:11:1,2017-06-10T15:00:00Z,26.4679,-82.0631,1.94,31.86,1111122 
SCCF RECON,ioos:station:SCCF:11:1,2017-06-10T16:00:00Z,26.4679,-82.0631,2.0,32.08,1111122 
SCCF RECON,ioos:station:SCCF:11:1,2017-06-10T17:00:00Z,26.4679,-82.0631,2.07,32.14,1111122 
SCCF RECON,ioos:station:SCCF:11:1,2017-06-10T18:00:00Z,26.4679,-82.0631,2.11,32.19,1111122 
SCCF RECON,ioos:station:SCCF:11:1,2017-06-10T19:00:00Z,26.4679,-82.0631,2.14,32.37,1111122 
SCCF RECON,ioos:station:SCCF:11:1,2017-06-10T20:00:00Z,26.4679,-82.0631,2.12,31.61,1111122 
SCCF RECON,ioos:station:SCCF:11:1,2017-06-10T21:00:00Z,26.4679,-82.0631,2.074,31.43,1111122 
SCCF RECON,ioos:station:SCCF:11:1,2017-06-10T22:00:00Z,26.4679,-82.0631,1.99,30.61,1111122 
SCCF RECON,ioos:station:SCCF:11:1,2017-06-10T23:00:00Z,26.4679,-82.0631,1.89,30.36,1111122 
SCCF RECON,ioos:station:SCCF:11:1,2017-06-11T00:00:00Z,26.4679,-82.0631,1.79,30.08,1111122 
SCCF RECON,ioos:station:SCCF:11:1,2017-06-11T01:00:00Z,26.4679,-82.0631,1.68,30.11,1111122 
SCCF RECON,ioos:station:SCCF:11:1,2017-06-11T02:00:00Z,26.4679,-82.0631,1.59,31.18,1111122 
SCCF RECON,ioos:station:SCCF:11:1,2017-06-11T03:00:00Z,26.4679,-82.0631,1.56,31.27,1111122 
SCCF RECON,ioos:station:SCCF:11:1,2017-06-11T04:00:00Z,26.4679,-82.0631,1.564,31.74,1111122 
SCCF RECON,ioos:station:SCCF:11:1,2017-06-11T05:00:00Z,26.4679,-82.0631,1.6,31.34,1111122 
SCCF RECON,ioos:station:SCCF:11:1,2017-06-11T06:00:00Z,26.4679,-82.0631,1.677,29.45,1111122 
SCCF RECON,ioos:station:SCCF:11:1,2017-06-11T07:00:00Z,26.4679,-82.0631,1.75,28.78,1111122 
SCCF RECON,ioos:station:SCCF:11:1,2017-06-11T08:00:00Z,26.4679,-82.0631,1.817,29.43,1111122 
SCCF RECON,ioos:station:SCCF:11:1,2017-06-11T09:00:00Z,26.4679,-82.0631,1.86,29.97,1111122 
SCCF RECON,ioos:station:SCCF:11:1,2017-06-11T10:00:00Z,26.4679,-82.0631,1.89,30.48,1111122 
SCCF RECON,ioos:station:SCCF:11:1,2017-06-11T11:00:00Z,26.4679,-82.0631,1.89,30.53,1111122 
SCCF RECON,ioos:station:SCCF:11:1,2017-06-11T12:00:00Z,26.4679,-82.0631,1.88,30.76,1111122 
SCCF RECON,ioos:station:SCCF:11:1,2017-06-11T13:00:00Z,26.4679,-82.0631,1.855,30.98,1111122 
SCCF RECON,ioos:station:SCCF:11:1,2017-06-11T14:00:00Z,26.4679,-82.0631,1.85,30.75,1111122 
SCCF RECON,ioos:station:SCCF:11:1,2017-06-11T15:00:00Z,26.4679,-82.0631,1.881,30.57,1111122 
SCCF RECON,ioos:station:SCCF:11:1,2017-06-11T16:00:00Z,26.4679,-82.0631,1.95,29.12,1111122 
SCCF RECON,ioos:station:SCCF:11:1,2017-06-11T17:00:00Z,26.4679,-82.0631,2.02,31.47,1111122 
SCCF RECON,ioos:station:SCCF:11:1,2017-06-11T18:00:00Z,26.4679,-82.0631,2.08,31.42,1111122 